Starlink 5464

operational
NORAD ID: 54758 Int'l Des: 2022-175 Owner: SPXS Country: US Constellation: starlink
LEOCIRCULAR

About Starlink 5464

Description loading...

Live Position

Loading 3D Globe...

Upcoming Passes

Altitude History

Altitude vs Time

uPlot chart will show altitude changes over time

Two-Line Element Set

1 54758U 22175A 25350.47302461 .00000843 00000-0 71059-4 0 9999
2 54758 53.2179 52.8890 0001301 94.7938 265.3203 15.08834451167425
Epoch: Dec 16, 2025 • Age: 24 hours

Current Status

Altitude 554.0 km
Velocity 7.58 km/s
Sub-Earth Point -40.75°S, 117.92°E
Launch Date Dec 17, 2022
Age 2.9 years
Type internet

Technical Details

Classification Payload
Mass 305.00 kg
Dry Mass 290.00 kg
Total Mass 305.00 kg
Length 0.20 m
Diameter 2.80 m
Span 9.00 m
Shape Box + pan
Manufacturer SPXS
Bus Type Starlink
Phase Status In Orbit
Owner/State SPXS/US

Large Constellations

Loading constellations...